Weather History for McMinnville, OR

Change the Weather History Date:

Wednesday, October 5, 2011

  Actual Average Record
Temperature  
Mean Temperature 54 °F 55 °F  
Max Temperature 60 °F 68 °F 88 °F (1980)
Min Temperature 48 °F 43 °F 29 °F (1956)
Degree Days  
Heating Degree Days 11 10  
Month to date heating degree days 37 45  
Since 1 July heating degree days 140 261  
Cooling Degree Days 0 0  
Month to date cooling degree days 0 0  
Year to date cooling degree days 251 214  
Growing Degree Days 2 (Base 50)    
Moisture  
Dew Point 47 °F    
Average Humidity 80    
Maximum Humidity 93    
Minimum Humidity 67    
Precipitation  
Precipitation 0.14 in 0.07 in 1.00 in (1950)
Month to date precipitation 0.73 0.32  
Year to date precipitation 24.50 24.03  
Snow  
Snow 0.00 in - - ()
Month to date snowfall 0.0  
Snow Depth 0.00 in    
Sea Level Pressure  
Sea Level Pressure 29.59 in    
Wind  
Wind Speed 6 mph (South)    
Max Wind Speed 18 mph    
Max Gust Speed 21 mph    
Visibility 10 miles    
Events Rain    
T = Trace of Precipitation, MM = Missing Value Source: NWS Daily Summary

Daily Weather History Graph

Daily Weather History Graph

Search for Another Location

Airport:

Trip Planner

Search our weather history database for the weather conditions in past years. The results will help you decide how hot, cold, wet, or windy it might be!

Date:

Astronomy

Oct. 05, 2011 Rise Set
Actual Time 7:15 AM PDT 6:45 PM PDT
Civil Twilight 6:46 AM PDT 7:15 PM PDT
Nautical Twilight 6:11 AM PDT 7:49 PM PDT
Astronomical Twilight 5:37 AM PDT 8:23 PM PDT
Moon 3:43 PM PDT (10/5) 12:51 AM PDT (10/5)
Length of Visible Light 12h 29m
Length of Day
11h 30m
Waxing Gibbous, 67% of the Moon is Illuminated
Oct 5
Waxing Gibbous
Oct 11
Full
Oct 19
Last Quarter
Oct 26
New
Nov 2
First Quarter

Hourly Weather History & Observations

Time (PDT) Temp. Dew Point Humidity Pressure Visibility Wind Dir Wind Speed Gust Speed Precip Events Conditions
12:53 AM 51.1 °F 46.0 °F 83% 29.48 in 10.0 mi South 3.5 mph - 0.02 in   Overcast
1:53 AM 48.9 °F 46.9 °F 93% 29.49 in 10.0 mi Calm Calm - 0.02 in   Overcast
2:53 AM 50.0 °F 46.9 °F 89% 29.49 in 10.0 mi SE 4.6 mph - 0.01 in   Mostly Cloudy
4:53 AM 51.1 °F 46.9 °F 86% 29.50 in 10.0 mi South 9.2 mph - 0.01 in Rain Light Rain
5:07 AM 51.8 °F 48.2 °F 88% 29.50 in 8.0 mi South 5.8 mph - 0.00 in Rain Light Rain
5:53 AM 50.0 °F 46.9 °F 89% 29.51 in 10.0 mi SSE 5.8 mph - 0.01 in   Overcast
6:16 AM 50.0 °F 46.4 °F 87% 29.51 in 10.0 mi SE 4.6 mph - 0.01 in   Overcast
6:44 AM 50.0 °F 46.4 °F 87% 29.52 in 10.0 mi SSE 5.8 mph - 0.01 in   Overcast
6:53 AM 50.0 °F 46.9 °F 89% 29.52 in 10.0 mi SSE 5.8 mph - 0.01 in   Overcast
7:53 AM 50.0 °F 46.9 °F 89% 29.54 in 10.0 mi South 5.8 mph - 0.01 in   Overcast
8:53 AM 52.0 °F 48.0 °F 86% 29.55 in 10.0 mi South 9.2 mph - 0.01 in   Mostly Cloudy
9:08 AM 53.6 °F 48.2 °F 82% 29.55 in 10.0 mi South 10.4 mph - N/A   Mostly Cloudy
9:53 AM 52.0 °F 46.9 °F 83% 29.57 in 10.0 mi South 11.5 mph - N/A   Mostly Cloudy
10:04 AM 51.8 °F 46.4 °F 82% 29.57 in 10.0 mi SSW 9.2 mph - N/A   Mostly Cloudy
10:13 AM 51.8 °F 46.4 °F 82% 29.57 in 10.0 mi SSW 10.4 mph - N/A   Mostly Cloudy
10:22 AM 51.8 °F 46.4 °F 82% 29.57 in 10.0 mi South 11.5 mph - N/A   Overcast
10:53 AM 54.0 °F 46.9 °F 77% 29.58 in 10.0 mi SSW 12.7 mph - N/A   Overcast
11:53 AM 54.0 °F 45.0 °F 72% 29.59 in 10.0 mi South 16.1 mph - N/A   Overcast
12:53 PM 55.9 °F 48.0 °F 75% 29.60 in 10.0 mi South 10.4 mph - 0.01 in   Mostly Cloudy
4:53 PM 57.9 °F 46.9 °F 67% 29.64 in 10.0 mi West 11.5 mph - N/A   Mostly Cloudy
5:53 PM 55.9 °F 46.0 °F 69% 29.67 in 10.0 mi West 11.5 mph - N/A   Overcast
6:53 PM 54.0 °F 45.0 °F 72% 29.70 in 10.0 mi West 4.6 mph - N/A   Mostly Cloudy
7:53 PM 51.1 °F 46.0 °F 83% 29.72 in 10.0 mi WSW 4.6 mph - N/A   Scattered Clouds
8:53 PM 50.0 °F 46.0 °F 86% 29.75 in 10.0 mi SSE 4.6 mph - N/A   Overcast
9:53 PM 50.0 °F 46.9 °F 89% 29.77 in 10.0 mi Calm Calm - N/A   Overcast
10:53 PM 48.9 °F 46.0 °F 90% 29.78 in 10.0 mi Calm Calm - N/A   Partly Cloudy
11:53 PM 48.0 °F 46.0 °F 93% 29.80 in 10.0 mi Calm Calm - N/A   Overcast